Location: Waltman Observatory
(32.5145°N, 90.4450°W)
Time: 06:43:40
(UTC-05:00)

Amateur Radio Satellites - All Passes

Search period start: 26 May 2015 06:13
Search period end: 27 May 2015 06:13
Location: Waltman Observatory, 32.5145°N, 90.4450°W

Satellite Date Start Highest point End Downlink Frequencies (MHz)
Time Altitude Azimuth
M-CUBED/EXP-1 PRIME 26 May 06:18:04 06:19:41 12° 66° (ENE) 06:21:28 437.505
Cosmos 2491 26 May 06:23:11 06:31:05 37° 75° (ENE) 06:39:05 435.465 / 435.565
AUBIESAT-1 26 May 06:26:53 06:28:49 13° 67° (ENE) 06:30:53 437.475
Cubesat XI-IV 26 May 06:28:35 06:32:48 24° 95° (E) 06:37:10 437.490
STRAND 1 26 May 06:33:12 06:37:26 28° 71° (ENE) 06:41:46 437.568
VERMONT LUNAR 26 May 06:56:30 06:59:32 38° 20° (NNE) 07:02:33 437.305
ISS 26 May 07:08:38 07:11:48 46° 41° (NE) 07:14:57 145.825
YUBILEINY 26 May 07:09:20 07:17:02 37° 89° (E) 07:24:54 435.215
PHONESAT 2.4 26 May 07:13:07 07:16:02 24° 10° (N) 07:18:57 2401.200-2431.200
CUBESAT XI-V 26 May 07:16:30 07:20:46 37° 263° (W) 07:25:01 437.345
PRISM 26 May 07:28:18 07:32:19 56° 259° (W) 07:36:20 437.425
AIST 1 26 May 07:47:21 07:51:05 28° 78° (ENE) 07:54:54
CUTE-I 26 May 07:47:29 07:52:43 54° 286° (WNW) 07:57:56 437.470
M-CUBED/EXP-1 PRIME 26 May 07:50:02 07:54:17 47° 255° (WSW) 07:58:14 437.505
AUBIESAT-1 26 May 07:59:14 08:03:22 42° 256° (WSW) 08:07:12 437.475
RS-15 26 May 08:05:45 08:14:46 33° 107° (ESE) 08:24:14 29.354- 29.394
Cubesat XI-IV 26 May 08:08:08 08:12:58 34° 289° (WNW) 08:17:43 437.490
STRAND 1 26 May 08:12:17 08:16:36 27° 264° (W) 08:20:50 437.568
Cosmos 2491 26 May 08:19:54 08:28:00 40° 271° (W) 08:35:53 435.465 / 435.565
VERMONT LUNAR 26 May 08:33:47 08:36:42 32° 213° (SSW) 08:39:35 437.305
BRITE-PL 26 May 08:38:15 08:43:37 45° 97° (E) 08:48:44 437.365/2234.400
GOMX 1 26 May 08:45:51 08:50:33 32° 95° (E) 08:55:04 467.674
ISS 26 May 08:46:47 08:47:56 11° 233° (SW) 08:48:57 145.825
PHONESAT 2.4 26 May 08:51:01 08:54:29 77° 26° (NNE) 08:57:56 2401.200-2431.200
Cosmos 2504 26 May 09:00:33 09:04:58 16° 85° (E) 09:09:47 435.465 / 435.565
YUBILEINY 26 May 09:05:41 09:13:49 39° 284° (WNW) 09:21:47 435.215
CANX-2 26 May 09:07:56 09:11:42 32° 97° (E) 09:15:30 2200.000
CUTE 1.7 + AOD 2 26 May 09:11:38 09:15:23 32° 97° (E) 09:19:11 437.475
AIST 1 26 May 09:25:30 09:28:34 18° 271° (W) 09:31:29
CINEMA 3 26 May 09:35:22 09:39:24 29° 95° (E) 09:43:19 145.822/145.860
SEEDS 26 May 09:35:22 09:39:27 52° 99° (E) 09:43:32 437.485
HO-68 26 May 09:35:30 09:42:38 67° 103° (ESE) 09:49:43 435.675
UNISAT 6 26 May 09:45:28 09:47:34 13° 69° (ENE) 09:49:55 437.425
UWE-3 26 May 09:46:46 09:48:44 13° 91° (E) 09:50:56 435.000/436.395/437.385
COMPASS 1 26 May 09:49:58 09:54:05 63° 100° (E) 09:58:10 437.405
DOVE 4 26 May 09:50:30 09:55:36 81° 282° (WNW) 10:00:23 437.250
FUNcube-1 26 May 09:58:59 10:01:04 14° 91° (E) 10:03:22 145.935
AAUSAT CUBESAT 2 26 May 10:02:49 10:06:58 79° 102° (ESE) 10:11:05 437.432
RS-15 26 May 10:15:58 10:26:39 58° 305° (NW) 10:37:31 29.354- 29.394
BRITE-PL 26 May 10:17:39 10:21:45 20° 292° (WNW) 10:25:31 437.365/2234.400
PCSat 26 May 10:18:53 10:23:40 32° 57° (ENE) 10:28:29 145.827
GOMX 1 26 May 10:24:10 10:28:30 25° 290° (WNW) 10:32:31 467.674
ANTELSAT 26 May 10:26:20 10:30:40 39° 73° (ENE) 10:35:01 437.575/2403.000
NANOSAT C BR1 26 May 10:28:41 10:31:11 16° 70° (ENE) 10:33:53 145.865
PHONESAT 2.4 26 May 10:30:07 10:32:20 16° 218° (SW) 10:34:27 2401.200-2431.200
CUBEBUG 2 26 May 10:32:09 10:36:33 65° 100° (E) 10:40:48 437.445
QB50P2 26 May 10:35:30 10:38:33 20° 71° (ENE) 10:41:45 145.880/145.840
DELFI C3 26 May 10:35:41 10:39:38 57° 100° (E) 10:43:34 145.870
ZACube-1 26 May 10:37:32 10:41:38 43° 98° (E) 10:45:40 437.345
HUMSAT D 26 May 10:39:14 10:42:04 18° 94° (E) 10:44:59 437.325/437.525
UKube-1 26 May 10:41:50 10:44:56 20° 95° (E) 10:48:10 .
CANX-2 26 May 10:44:46 10:47:24 16° 290° (WNW) 10:49:51 2200.000
POPSAT HIP 1 26 May 10:47:26 10:50:59 27° 72° (ENE) 10:54:38 437.405
CUTE 1.7 + AOD 2 26 May 10:48:26 10:51:05 16° 289° (WNW) 10:53:34 437.475
DX 1 26 May 10:48:56 10:52:35 26° 96° (E) 10:56:18 434.975-435.025
Cosmos 2504 26 May 10:49:14 10:57:46 78° 277° (W) 11:05:44 435.465 / 435.565
DUCHIFAT 1 26 May 10:49:59 10:53:35 28° 72° (ENE) 10:57:16 145.980
Oscar 11 26 May 10:51:46 10:56:01 62° 284° (WNW) 11:00:14 145.826/435.025
TIGRISAT 26 May 10:59:07 11:03:50 90° 42° (NE) 11:08:32 435.000
JUGNU 26 May 11:00:17 11:04:20 19° 170° (S) 11:08:25 437.505
VELOX 1 26 May 11:00:37 11:03:26 17° 93° (E) 11:06:25 145.980
CINEMA 3 26 May 11:12:52 11:16:25 21° 290° (WNW) 11:19:43 145.822/145.860
BUGSAT 1 26 May 11:16:23 11:20:11 38° 74° (ENE) 11:24:05 437.445
UNISAT 6 26 May 11:19:23 11:23:58 51° 261° (W) 11:28:31 437.425
UWE-3 26 May 11:21:27 11:25:33 38° 286° (WNW) 11:29:28 435.000/436.395/437.385
HO-68 26 May 11:24:47 11:29:48 20° 297° (WNW) 11:34:31 435.675
QB50P1 26 May 11:30:46 11:35:03 86° 258° (WSW) 11:39:21 145.935-145.965
AISAT 26 May 11:30:50 11:35:04 40° 99° (E) 11:39:18 437.250
POLYITAN 1 26 May 11:32:19 11:36:36 81° 256° (WSW) 11:40:57 437.675
FUNcube-1 26 May 11:33:39 11:37:37 36° 286° (WNW) 11:41:28 145.935
50 SAT 26 May 11:45:30 11:49:21 71° 101° (E) 11:53:11 437.505
SO-50 26 May 11:46:54 11:49:48 16° 48° (NE) 11:52:53 436.795
PCSat 26 May 12:02:24 12:07:00 28° 252° (WSW) 12:11:29 145.827
NANOSAT C BR1 26 May 12:02:53 12:06:46 34° 262° (W) 12:10:40 145.865
ANTELSAT 26 May 12:04:32 12:07:36 17° 267° (W) 12:10:27 437.575/2403.000
QB50P2 26 May 12:10:37 12:14:18 27° 264° (W) 12:17:55 145.880/145.840
HUMSAT D 26 May 12:14:20 12:17:50 26° 287° (WNW) 12:21:14 437.325/437.525
ZACube-1 26 May 12:15:44 12:17:38 12° 291° (WNW) 12:19:16 437.345
SRMSAT 26 May 12:16:21 12:19:58 17° 168° (SSE) 12:23:39 437.500
UKube-1 26 May 12:17:21 12:21:05 28° 288° (WNW) 12:24:44 .
POPSAT HIP 1 26 May 12:23:39 12:26:51 20° 266° (W) 12:29:57 437.405
DX 1 26 May 12:25:19 12:28:43 21° 289° (WNW) 12:31:59 434.975-435.025
DUCHIFAT 1 26 May 12:26:20 12:29:25 19° 266° (W) 12:32:23 145.980
ESTCUBE 1 26 May 12:35:38 12:40:07 61° 284° (WNW) 12:44:35 437.505/2401.250
CUBEBUG 1 26 May 12:36:01 12:40:28 69° 283° (WNW) 12:44:52 437.445
VELOX 1 26 May 12:36:03 12:40:07 34° 287° (WNW) 12:44:07 145.980
RS-15 26 May 12:36:10 12:42:24 15° 333° (NNW) 12:48:13 29.354- 29.394
DANDE 26 May 12:38:09 12:43:33 27° 85° (E) 12:50:07 436.750
JUGNU 26 May 12:48:10 12:52:47 24° 180° (S) 12:57:23 437.505
Cosmos 2504 26 May 12:50:06 12:52:30 11° 295° (WNW) 12:54:05 435.465 / 435.565
BUGSAT 1 26 May 12:53:54 12:55:53 13° 269° (W) 12:57:38 437.445
AISAT 26 May 13:08:43 13:11:21 15° 291° (WNW) 13:13:46 437.250
CUSAT 1 26 May 13:12:32 13:19:21 69° 94° (E) 13:27:29 437.405
SPROUT 26 May 13:17:36 13:21:58 89° 273° (W) 13:26:16 437.525
Oscar 19 26 May 13:24:26 13:29:23 48° 74° (ENE) 13:34:24 437.125/150
SO-50 26 May 13:25:56 13:30:49 58° 245° (WSW) 13:35:33 436.795
GONETS M04 26 May 13:32:59 13:41:45 73° 93° (E) 13:50:34
ITAMSAT 1 26 May 13:38:50 13:42:08 18° 68° (ENE) 13:45:40 435.822/435.867
TISAT 1 26 May 13:43:43 13:47:56 59° 284° (WNW) 13:52:05 437.305
SRMSAT 26 May 14:03:59 14:08:33 23° 177° (S) 14:13:08 437.500
Gurwin Techsat 1B 26 May 14:11:10 14:15:57 36° 72° (ENE) 14:20:48 435.225
ITUPSAT 1 26 May 14:16:21 14:20:48 38° 98° (E) 14:25:17 437.325
DANDE 26 May 14:19:46 14:26:17 50° 285° (WNW) 14:34:11 436.750
BEESAT 26 May 14:24:21 14:28:58 49° 100° (E) 14:33:35 436.000
SWISSCUBE 26 May 14:32:38 14:37:24 68° 102° (ESE) 14:42:08 437.505
JUGNU 26 May 14:37:08 14:41:13 19° 190° (S) 14:45:15 437.505
O/OREOS (USA 219) 26 May 14:47:13 14:48:54 12° 101° (E) 14:50:51 437.305
CUSAT 1 26 May 14:57:29 15:02:59 21° 295° (WNW) 15:08:39 437.405
Oscar 19 26 May 15:05:51 15:09:03 16° 268° (W) 15:12:00 437.125/150
AO-7 26 May 15:12:12 15:19:14 34° 64° (ENE) 15:26:29 29.400- 29.500
ITAMSAT 1 26 May 15:16:25 15:21:20 44° 261° (W) 15:26:16 435.822/435.867
JAS-2 26 May 15:18:50 15:24:46 34° 72° (ENE) 15:30:14 435.910
Cosmos 2499 26 May 15:20:19 15:28:33 68° 94° (E) 15:36:11 435.465 / 435.565
GONETS M04 26 May 15:33:15 15:39:33 20° 292° (WNW) 15:45:23
STARS 26 May 15:44:08 15:48:12 35° 98° (E) 15:52:15 437.465
Gurwin Techsat 1B 26 May 15:51:54 15:56:02 22° 266° (W) 16:00:01 435.225
SRMSAT 26 May 15:52:48 15:57:09 21° 187° (S) 16:01:29 437.500
ITUPSAT 1 26 May 15:55:11 15:58:26 18° 291° (WNW) 16:01:31 437.325
HORYU 2 26 May 16:00:37 16:05:07 81° 77° (ENE) 16:09:36 437.375
BEESAT 26 May 16:03:50 16:06:26 14° 292° (WNW) 16:08:48 436.000
SWISSCUBE 26 May 16:13:48 16:14:46 10° 294° (WNW) 16:15:23 437.505
KKS-1 26 May 16:14:42 16:19:05 55° 285° (WNW) 16:23:26 437.445
O/OREOS (USA 219) 26 May 16:23:37 16:27:58 45° 292° (WNW) 16:32:18 437.305
JAS-2 26 May 17:03:34 17:09:49 34° 262° (W) 17:15:20 435.910
AO-7 26 May 17:03:54 17:11:49 47° 259° (W) 17:19:42 29.400- 29.500
BEESAT 3 26 May 17:09:13 17:11:25 15° 110° (ESE) 17:13:49 437.485
RS-15 26 May 17:10:44 17:20:18 30° 43° (NE) 17:30:32 29.354- 29.394
Cosmos 2499 26 May 17:16:35 17:22:17 19° 289° (WNW) 17:27:20 435.465 / 435.565
STARS 26 May 17:21:33 17:24:24 16° 290° (WNW) 17:27:02 437.465
CUTE-I 26 May 17:27:12 17:30:17 16° 67° (ENE) 17:33:37 437.470
YUBILEINY 26 May 17:27:46 17:30:54 13° 63° (ENE) 17:34:49 435.215
MOZHAYETS 4 26 May 17:39:49 17:44:24 90° 283° (WNW) 17:48:58
SRMSAT 26 May 17:43:15 17:45:43 12° 196° (SSW) 17:48:03 437.500
Cubesat XI-IV 26 May 17:46:20 17:50:36 26° 70° (ENE) 17:55:00 437.490
BEESAT 2 26 May 17:55:32 17:59:24 43° 114° (ESE) 18:03:20 435.950
BEESAT 3 26 May 18:45:21 18:49:08 35° 303° (WNW) 18:52:55 437.485
STRAND 1 26 May 18:49:38 18:51:57 13° 91° (E) 18:54:35 437.568
CUTE-I 26 May 19:04:50 19:09:59 51° 260° (W) 19:15:10 437.470
PRISM 26 May 19:15:25 19:18:56 27° 97° (E) 19:22:31 437.425
CUBESAT XI-V 26 May 19:17:14 19:21:57 77° 100° (E) 19:26:39 437.345
Cosmos 2491 26 May 19:18:04 19:26:20 49° 90° (E) 19:34:45 435.465 / 435.565
AIST 2 26 May 19:20:19 19:24:33 73° 299° (WNW) 19:28:50 435.215
YUBILEINY 26 May 19:20:34 19:29:19 83° 84° (E) 19:38:01 435.215
RS-15 26 May 19:22:19 19:34:05 78° 245° (WSW) 19:46:14 29.354- 29.394
Cubesat XI-IV 26 May 19:25:53 19:30:36 31° 263° (W) 19:35:16 437.490
BEESAT 2 26 May 19:35:23 19:37:45 14° 310° (NW) 19:39:58 435.950
M-CUBED/EXP-1 PRIME 26 May 19:37:10 19:38:43 13° 99° (E) 19:40:26 437.505
BRITE-PL 26 May 19:44:20 19:48:39 31° 71° (ENE) 19:53:20 437.365/2234.400
AUBIESAT-1 26 May 19:45:26 19:47:16 14° 99° (E) 19:49:16 437.475
GOMX 1 26 May 19:49:26 19:53:13 22° 69° (ENE) 19:57:19 467.674
CANX-2 26 May 19:57:55 20:00:06 14° 70° (ENE) 20:02:28 2200.000
HO-68 26 May 19:59:41 20:05:43 31° 67° (ENE) 20:11:54 435.675
CUTE 1.7 + AOD 2 26 May 20:01:35 20:03:42 14° 70° (ENE) 20:06:02 437.475
AIST 1 26 May 20:12:42 20:15:45 20° 90° (E) 20:18:56
SEEDS 26 May 20:23:42 20:26:48 21° 72° (ENE) 20:30:02 437.485
STRAND 1 26 May 20:26:31 20:31:33 55° 286° (WNW) 20:36:34 437.568
CINEMA 3 26 May 20:32:47 20:36:08 19° 69° (ENE) 20:39:40 145.822/145.860
COMPASS 1 26 May 20:37:16 20:40:35 24° 72° (ENE) 20:43:58 437.405
Cosmos 2504 26 May 20:48:29 20:54:10 26° 73° (ENE) 21:00:06 435.465 / 435.565
AAUSAT CUBESAT 2 26 May 20:49:26 20:52:59 28° 73° (ENE) 20:56:35 437.432
DOVE 4 26 May 20:50:30 20:55:28 61° 75° (ENE) 21:00:40 437.250
PRISM 26 May 20:51:15 20:54:14 19° 289° (WNW) 20:57:06 437.425
M-CUBED/EXP-1 PRIME 26 May 21:11:00 21:13:38 22° 291° (WNW) 21:16:13 437.505
Cosmos 2491 26 May 21:15:56 21:23:31 30° 288° (WNW) 21:30:54 435.465 / 435.565
DELFI C3 26 May 21:19:30 21:22:19 19° 72° (ENE) 21:25:14 145.870
AUBIESAT-1 26 May 21:19:34 21:22:05 20° 292° (WNW) 21:24:33 437.475
YUBILEINY 26 May 21:20:26 21:25:15 15° 278° (W) 21:29:24 435.215
BRITE-PL 26 May 21:23:03 21:27:11 25° 267° (W) 21:31:27 437.365/2234.400
CUBEBUG 2 26 May 21:25:31 21:29:45 33° 73° (ENE) 21:34:02 437.445
GOMX 1 26 May 21:26:26 21:31:05 36° 264° (W) 21:35:57 467.674
ZACube-1 26 May 21:29:19 21:32:46 22° 71° (ENE) 21:36:21 437.345
CANX-2 26 May 21:31:44 21:35:44 38° 262° (W) 21:39:43 2200.000
CUTE 1.7 + AOD 2 26 May 21:35:20 21:39:20 38° 262° (W) 21:43:19 437.475
RS-15 26 May 21:39:16 21:45:22 14° 258° (WSW) 21:50:16 29.354- 29.394
DX 1 26 May 21:41:41 21:43:43 14° 69° (ENE) 21:45:59 434.975-435.025
Oscar 11 26 May 21:41:44 21:45:57 54° 76° (ENE) 21:50:12 145.826/435.025
HO-68 26 May 21:46:30 21:53:16 42° 261° (W) 21:59:58 435.675
AIST 1 26 May 21:49:49 21:53:18 23° 284° (WNW) 21:56:41
SEEDS 26 May 21:58:58 22:02:30 25° 265° (W) 22:05:55 437.485
CINEMA 3 26 May 22:08:21 22:13:00 40° 263° (W) 22:17:44 145.822/145.860
ISS 26 May 22:10:03 22:11:26 12° 127° (SE) 22:12:57 145.825
UWE-3 26 May 22:12:57 22:17:38 89° 258° (WSW) 22:22:21 435.000/436.395/437.385
COMPASS 1 26 May 22:12:57 22:16:12 21° 265° (W) 22:19:21 437.405
FUNcube-1 26 May 22:23:48 22:28:24 87° 264° (W) 22:33:00 145.935
AISAT 26 May 22:24:52 22:28:10 21° 71° (ENE) 22:31:37 437.250
AAUSAT CUBESAT 2 26 May 22:25:44 22:28:38 17° 267° (W) 22:31:22 437.432
ANTELSAT 26 May 22:26:11 22:26:36 10° 90° (E) 22:27:20 437.575/2403.000
50 SAT 26 May 22:26:19 22:29:19 21° 72° (ENE) 22:32:25 437.505
DOVE 4 26 May 22:31:33 22:33:44 12° 272° (W) 22:35:36 437.250
Cosmos 2504 26 May 22:41:03 22:47:47 43° 269° (W) 22:54:29 435.465 / 435.565
DELFI C3 26 May 22:53:57 22:57:18 24° 264° (W) 23:00:34 145.870
TIGRISAT 26 May 22:56:24 22:59:57 25° 95° (E) 23:03:31 435.000
HUMSAT D 26 May 23:00:28 23:04:47 71° 259° (W) 23:09:06 437.325/437.525
CUBEBUG 2 26 May 23:02:55 23:06:29 20° 267° (W) 23:09:55 437.445
ZACube-1 26 May 23:04:59 23:09:00 28° 264° (W) 23:12:55 437.345
UKube-1 26 May 23:06:55 23:11:10 59° 259° (W) 23:15:27 .
DX 1 26 May 23:15:30 23:19:38 42° 261° (W) 23:23:47 434.975-435.025
UNISAT 6 26 May 23:16:14 23:20:25 46° 99° (E) 23:24:33 437.425
QB50P1 26 May 23:21:18 23:24:33 22° 95° (E) 23:27:53 145.935-145.965
POLYITAN 1 26 May 23:23:05 23:26:27 23° 95° (E) 23:29:53 437.675
DANDE 26 May 23:26:47 23:31:18 17° 62° (ENE) 23:35:35 436.750
CUBEBUG 1 26 May 23:27:29 23:31:41 53° 76° (ENE) 23:35:59 437.445
VELOX 1 26 May 23:28:30 23:32:54 68° 259° (WSW) 23:37:20 145.980
ESTCUBE 1 26 May 23:30:31 23:34:57 69° 76° (ENE) 23:39:24 437.505/2401.250
ISS 26 May 23:44:31 23:47:35 40° 319° (NW) 23:50:41 145.825
GONETS M04 26 May 23:50:02 23:57:08 28° 72° (ENE) 00:04:28
NANOSAT C BR1 26 May 23:51:59 23:56:09 52° 100° (E) 00:00:18 145.865
CUSAT 1 26 May 23:58:29 00:04:51 39° 72° (ENE) 00:09:54 437.405
ANTELSAT 26 May 23:59:34 00:03:47 49° 285° (WNW) 00:07:54 437.575/2403.000
QB50P2 26 May 23:59:48 00:04:04 69° 101° (E) 00:08:17 145.880/145.840
50 SAT 27 May 00:00:47 00:03:57 21° 265° (W) 00:07:00 437.505
AISAT 27 May 00:00:49 00:04:37 27° 264° (W) 00:08:23 437.250
SPROUT 27 May 00:07:16 00:11:14 38° 74° (ENE) 00:15:17 437.525
POPSAT HIP 1 27 May 00:12:06 00:16:23 85° 285° (WNW) 00:20:38 437.405
DUCHIFAT 1 27 May 00:14:11 00:18:28 82° 283° (WNW) 00:22:42 145.980
TISAT 1 27 May 00:31:04 00:35:10 53° 75° (ENE) 00:39:21 437.305
TIGRISAT 27 May 00:33:15 00:36:36 21° 289° (WNW) 00:39:46 435.000
BUGSAT 1 27 May 00:38:06 00:42:19 62° 284° (WNW) 00:46:29 437.445
UNISAT 6 27 May 00:55:02 00:56:50 12° 292° (WNW) 00:58:24 437.425
PCSat 27 May 00:55:19 01:00:41 74° 114° (ESE) 01:06:07 145.827
QB50P1 27 May 00:56:53 01:00:22 24° 288° (WNW) 01:03:45 145.935-145.965
POLYITAN 1 27 May 00:58:53 01:02:17 23° 288° (WNW) 01:05:33 437.675
O/OREOS (USA 219) 27 May 01:00:57 01:02:36 12° 58° (ENE) 01:04:30 437.305
VERMONT LUNAR 27 May 01:08:08 01:11:10 38° 147° (SSE) 01:14:12 437.305
DANDE 27 May 01:08:10 01:15:42 69° 266° (W) 01:21:26 436.750
ITUPSAT 1 27 May 01:19:08 01:23:03 27° 71° (ENE) 01:27:05 437.325
Cosmos 2499 27 May 01:19:36 01:22:48 14° 68° (ENE) 01:26:31 435.465 / 435.565
BEESAT 27 May 01:26:35 01:30:48 33° 72° (ENE) 01:35:04 436.000
NANOSAT C BR1 27 May 01:30:32 01:31:35 11° 292° (WNW) 01:32:22 145.865
SWISSCUBE 27 May 01:34:45 01:39:15 45° 74° (ENE) 01:43:47 437.505
PHONESAT 2.4 27 May 01:36:16 01:38:29 16° 142° (SE) 01:40:47 2401.200-2431.200
Oscar 19 27 May 01:41:15 01:45:22 25° 95° (E) 01:49:35 437.125/150
CUSAT 1 27 May 01:41:50 01:47:07 24° 275° (W) 01:51:18 437.405
SPROUT 27 May 01:45:09 01:47:31 14° 268° (W) 01:49:41 437.525
GONETS M04 27 May 01:45:58 01:54:24 52° 269° (W) 02:02:41
SO-50 27 May 01:59:01 02:00:12 11° 108° (ESE) 02:01:43 436.795
Gurwin Techsat 1B 27 May 02:32:34 02:36:26 21° 94° (E) 02:40:29 435.225
STARS 27 May 02:37:25 02:40:27 19° 70° (ENE) 02:43:38 437.465
O/OREOS (USA 219) 27 May 02:38:04 02:42:24 51° 254° (WSW) 02:46:44 437.305
PCSat 27 May 02:41:54 02:44:46 14° 311° (NW) 02:47:23 145.827
VERMONT LUNAR 27 May 02:45:23 02:48:23 35° 341° (NNW) 02:51:22 437.305
ITUPSAT 1 27 May 02:57:01 03:00:55 24° 265° (W) 03:04:43 437.325
BEESAT 27 May 03:05:14 03:08:43 19° 266° (W) 03:12:04 436.000
KKS-1 27 May 03:07:55 03:12:23 74° 76° (ENE) 03:16:52 437.445
BEESAT 3 27 May 03:08:12 03:11:49 30° 56° (NE) 03:15:24 437.485
Cosmos 2499 27 May 03:09:45 03:16:48 75° 265° (W) 03:24:01 435.465 / 435.565
PHONESAT 2.4 27 May 03:12:52 03:16:21 76° 335° (NNW) 03:19:50 2401.200-2431.200
SWISSCUBE 27 May 03:14:45 03:17:23 14° 268° (W) 03:19:45 437.505
Oscar 19 27 May 03:20:14 03:24:44 31° 289° (WNW) 03:29:08 437.125/150
AO-7 27 May 03:22:14 03:24:20 11° 88° (E) 03:27:17 29.400- 29.500
ITAMSAT 1 27 May 03:33:33 03:38:48 85° 286° (WNW) 03:44:02 435.822/435.867
SO-50 27 May 03:35:39 03:40:14 60° 301° (WNW) 03:45:00 436.795
AIST 2 27 May 03:47:14 03:50:13 19° 52° (NE) 03:53:15 435.215
BEESAT 2 27 May 03:56:37 04:00:43 87° 244° (WSW) 04:04:44 435.950
HORYU 2 27 May 03:57:17 04:00:38 22° 95° (E) 04:04:07 437.375
Gurwin Techsat 1B 27 May 04:11:39 04:16:34 38° 288° (WNW) 04:21:24 435.225
STARS 27 May 04:12:45 04:16:42 31° 263° (W) 04:20:38 437.465
JAS-2 27 May 04:17:12 04:21:56 36° 98° (E) 04:26:57 435.910
VERMONT LUNAR 27 May 04:23:44 04:26:07 19° 358° (N) 04:28:30 437.305
MOZHAYETS 4 27 May 04:37:08 04:41:32 48° 75° (ENE) 04:45:57
BEESAT 3 27 May 04:46:54 04:49:34 17° 250° (WSW) 04:52:05 437.485
PHONESAT 2.4 27 May 04:51:53 04:54:48 24° 350° (N) 04:57:43 2401.200-2431.200
AO-7 27 May 05:10:02 05:18:27 81° 106° (ESE) 05:26:50 29.400- 29.500
AIST 2 27 May 05:25:08 05:28:52 31° 247° (WSW) 05:32:30 435.215
HORYU 2 27 May 05:33:34 05:37:16 26° 289° (WNW) 05:40:52 437.375
Cosmos 2491 27 May 05:35:44 05:41:11 18° 67° (ENE) 05:47:09 435.465 / 435.565
VERMONT LUNAR 27 May 06:01:05 06:03:54 28° 15° (NNE) 06:06:44 437.305
STRAND 1 27 May 06:01:56 06:04:00 13° 66° (ENE) 06:06:22 437.568
JAS-2 27 May 06:03:07 06:06:56 20° 290° (WNW) 06:10:41 435.910
PRISM 27 May 06:03:31 06:04:37 11° 68° (ENE) 06:05:57 437.425
